GEFSMA_500_meanwind_132.txt.gz
Wind_Speed
7 6 6 6 6 5 4 3 3 3 2 2 2 2 3 3 4 4 5 5 5 5 5 7 8 9 9 9 9 9 10 10 10 10 9 9 8 8 8 7 7 7 7
7 6 6 5 5 5 4 3 3 3 3 2 2 3 3 3 4 4 5 5 5 6 6 7 8 8 9 9 9 10 10 11 11 11 11 11 11 10 10 10 9 9 9
9 7 6 5 5 4 4 3 3 3 3 3 3 2 2 3 3 3 4 4 5 5 6 7 7 8 9 10 10 10 10 10 12 12 12 13 12 12 12 12 12 12 12
10 9 8 6 6 5 4 3 3 3 3 3 2 2 2 3 3 3 3 4 4 5 6 6 6 7 8 9 10 11 10 10 11 12 13 14 14 14 14 14 14 13 13
11 10 9 8 7 6 5 4 3 3 3 3 2 2 2 3 3 3 3 3 4 4 5 5 6 7 7 8 9 10 11 11 12 12 13 14 15 14 15 15 15 15 15
12 11 10 9 8 6 6 5 4 4 3 3 3 3 3 2 2 2 2 3 3 4 4 5 6 6 7 7 8 9 10 11 12 12 13 14 14 15 15 16 16 17 18
13 12 11 10 9 8 7 6 5 5 4 3 3 3 2 2 1 1 1 2 3 3 4 4 5 6 7 7 8 9 10 11 12 12 13 14 15 15 16 16 17 17 18
14 13 12 11 10 9 8 7 6 5 5 4 3 3 2 2 2 2 2 2 3 4 4 4 5 6 6 7 8 9 10 10 11 12 13 14 14 15 16 17 18 18 18
15 14 13 12 10 9 8 8 7 6 5 4 3 2 2 2 2 2 3 3 4 4 5 5 6 6 7 7 8 9 10 10 11 12 13 14 14 15 16 17 18 19 19
16 16 14 13 11 10 9 8 8 7 6 5 4 3 3 2 2 3 4 4 5 5 5 6 7 7 8 9 9 10 10 11 12 12 13 14 15 16 17 18 19 20 20
17 16 15 14 13 11 10 9 8 7 6 5 5 4 4 4 4 4 5 5 6 6 7 7 8 9 9 10 10 11 11 12 12 13 14 14 15 16 17 18 19 20 21
17 16 15 14 13 12 10 9 8 7 7 6 6 5 5 5 6 6 6 6 7 7 8 9 9 10 11 11 12 12 13 13 14 15 15 16 16 17 17 19 20 21 22
17 16 15 14 13 12 11 10 9 8 8 8 8 7 7 7 8 8 8 8 8 9 10 11 11 12 12 13 14 14 14 15 15 16 17 17 18 18 19 20 20 21 22
17 17 16 15 14 13 12 11 10 9 9 9 9 9 9 9 9 9 10 10 11 11 12 13 13 14 14 15 15 16 16 16 17 17 18 18 19 20 20 21 22 22 22
18 17 17 16 15 14 13 12 11 11 11 11 11 10 11 11 11 12 12 13 13 14 14 15 16 17 17 17 18 18 18 19 19 19 19 20 20 21 21 22 22 23 24
19 18 18 17 16 15 14 13 12 12 12 13 13 13 13 14 14 15 15 16 16 17 17 18 19 20 20 20 21 21 21 21 21 21 22 22 22 22 22 23 23 24 25
19 18 18 17 17 16 15 15 15 15 15 15 15 16 17 17 18 18 19 19 19 20 20 21 21 22 23 23 24 24 24 24 24 24 24 24 24 25 25 25 25 25 26
19 19 18 18 18 18 17 17 18 18 18 18 19 19 20 20 21 22 22 22 23 23 23 24 24 25 25 26 26 27 27 27 27 27 27 27 27 27 27 27 27 27 27
18 19 18 18 19 20 20 21 21 21 22 22 22 23 24 24 25 25 25 26 26 27 27 27 27 27 28 28 28 29 29 29 29 29 29 29 29 29 29 29 29 29 29
19 19 20 20 21 22 23 23 23 24 24 25 26 26 27 27 28 28 29 29 29 30 30 30 30 31 31 30 30 31 31 31 32 32 31 31 31 31 31 31 31 31 31
20 20 21 22 23 24 24 25 25 26 27 28 29 30 30 30 31 31 31 32 32 32 33 33 33 33 34 34 34 33 34 34 34 35 34 34 34 34 34 34 33 34 34
22 23 24 25 26 27 27 27 28 29 30 31 32 32 33 33 34 35 35 35 35 35 35 35 35 36 36 37 37 36 36 36 36 37 37 37 37 37 37 36 36 36 36
24 25 26 27 28 29 30 30 31 31 32 33 34 35 35 36 36 36 37 37 38 38 38 38 38 38 39 39 40 39 39 39 39 39 39 39 40 39 39 39 39 39 38
25 27 28 29 30 31 32 33 33 33 34 34 35 36 37 38 38 38 39 39 39 39 40 40 40 40 41 41 42 42 42 42 41 41 42 41 41 42 42 41 42 41 41
28 28 29 30 31 32 33 34 34 35 35 36 36 37 38 39 40 40 40 40 40 41 42 42 43 43 43 44 44 44 45 45 44 44 45 45 44 45 45 45 45 45 44
30 30 31 32 32 33 34 35 35 36 37 38 39 40 40 41 41 42 43 43 43 43 44 44 45 45 46 46 47 47 48 48 48 47 48 48 48 48 47 47 48 48 48

GEFSMA_500_meanwind_138.txt.gz
Wind_Speed
8 7 6 6 6 5 4 4 5 4 4 3 3 4 4 4 5 5 5 5 6 6 6 7 7 8 8 8 8 9 9 10 10 10 10 10 10 9 9 8 7 7 6
9 7 6 6 6 6 5 5 5 5 4 4 3 4 4 4 5 5 5 5 6 6 6 7 7 8 8 9 9 9 9 10 10 10 11 12 12 11 11 10 9 9 8
10 9 7 7 6 6 6 6 5 5 5 4 4 4 4 4 4 4 5 5 5 5 6 7 7 7 7 8 9 9 9 9 10 10 10 11 11 11 12 12 11 11 11
11 10 9 8 8 7 7 7 6 6 5 5 5 5 4 4 4 4 4 4 4 5 5 6 6 6 6 7 8 9 9 10 11 11 11 11 12 12 12 13 13 13 13
12 11 10 9 9 8 8 8 7 6 6 6 5 5 4 4 4 4 3 3 4 4 4 4 5 5 6 7 7 8 9 9 10 10 10 11 12 13 13 13 13 13 14
13 12 11 11 10 9 8 8 7 6 6 6 6 5 4 4 4 3 3 3 3 3 3 4 4 5 6 6 6 7 8 8 9 10 10 11 11 11 12 13 13 13 14
14 13 12 11 11 10 9 8 8 7 6 6 6 5 5 4 4 4 3 3 2 3 3 4 5 5 6 6 6 7 7 8 8 9 9 10 11 11 12 12 13 14 14
15 14 13 12 12 11 10 9 9 8 7 6 6 6 5 4 4 3 3 3 3 4 4 5 5 6 6 6 6 7 7 8 8 9 9 10 11 12 13 13 13 14 14
17 16 14 13 13 12 11 10 9 9 8 7 7 6 5 5 4 4 4 4 4 4 5 5 6 6 6 7 7 8 8 9 9 10 10 11 11 12 13 14 14 15 15
18 17 15 15 14 13 12 12 11 9 9 8 7 7 6 5 5 5 4 5 5 6 6 6 6 7 7 8 8 9 10 10 11 11 11 12 12 13 14 14 15 15 16
18 17 16 15 14 13 13 12 11 10 10 9 8 7 7 6 6 6 5 6 6 7 7 7 8 8 9 9 9 10 11 11 12 12 13 13 13 14 14 15 15 15 16
19 18 16 15 14 14 13 13 12 11 10 10 9 8 8 7 7 7 7 7 7 8 8 9 9 10 10 10 11 11 12 13 13 14 14 14 14 15 15 16 16 16 17
20 19 17 16 15 15 14 14 13 11 10 10 10 9 9 8 8 9 9 9 9 9 10 10 11 11 12 12 12 13 13 14 14 15 15 15 16 16 17 17 18 18 18
19 19 17 17 16 15 15 14 14 12 11 11 10 10 10 10 10 11 11 11 11 11 12 12 13 13 14 15 15 15 16 16 16 16 17 17 18 18 18 19 19 19 20
19 18 17 17 17 16 16 15 14 13 13 12 12 11 11 12 12 12 13 14 14 14 14 15 15 16 17 17 18 18 18 18 19 19 19 20 20 20 20 20 21 21 21
19 18 17 17 17 17 16 16 15 15 14 14 14 14 14 14 14 15 15 16 16 17 17 18 19 19 20 21 21 21 22 22 22 22 22 22 23 23 23 23 23 23 23
18 17 17 17 18 18 17 17 17 17 16 16 16 16 17 17 17 18 18 19 19 20 21 21 22 23 23 24 24 25 25 25 25 25 25 25 25 25 25 25 25 25 25
18 18 17 17 18 18 19 18 18 18 18 18 18 19 19 20 20 21 21 22 23 24 24 25 26 26 27 27 27 28 28 28 28 28 28 27 27 27 27 28 28 28 28
18 18 19 19 19 20 21 21 20 20 20 20 21 22 22 23 24 24 24 25 26 27 28 28 29 29 29 30 30 30 31 31 31 31 31 31 30 30 30 31 31 31 31
19 19 20 20 21 21 21 22 23 23 23 24 24 25 25 26 26 26 27 27 28 29 30 31 32 32 32 33 33 33 33 33 34 34 34 34 34 34 34 34 34 34 34
19 20 21 21 21 22 23 24 25 26 27 27 28 28 28 28 29 29 30 31 31 32 33 34 34 35 35 35 35 35 36 36 37 38 37 37 37 37 37 37 37 37 37
20 20 21 22 22 23 24 25 26 27 29 29 30 31 31 31 32 33 34 34 34 35 35 35 36 37 37 37 37 37 37 37 38 38 39 39 40 40 40 40 39 39 39
21 22 22 23 23 24 25 26 27 28 29 31 31 32 33 34 35 36 37 37 38 38 38 37 37 38 38 39 40 40 39 39 39 40 41 41 41 42 42 43 42 42 42
23 24 25 26 26 26 28 29 30 31 32 33 34 34 35 36 36 38 39 39 40 40 40 41 40 40 41 41 42 42 42 42 42 42 43 44 44 45 45 45 44 44 44
26 27 27 28 28 29 31 32 33 33 34 35 36 36 37 37 39 40 41 41 41 42 43 43 43 43 44 44 45 45 46 46 46 46 47 47 47 48 48 47 47 47 47
28 29 30 31 32 33 34 35 35 36 36 37 39 39 40 41 42 43 43 44 44 45 46 45 45 46 46 47 48 48 48 49 49 49 49 50 50 51 50 50 50 50 50

GEFSMA_500_meanwind_144.txt.gz
Wind_Speed
10 9 8 7 6 6 5 5 5 4 4 3 2 2 2 2 2 2 2 3 3 3 3 4 4 5 5 5 6 6 7 7 7 7 6 6 6 6 6 6 5 5 4
11 10 9 7 7 6 6 5 5 4 3 3 3 2 2 2 2 2 2 2 3 3 3 4 4 4 4 5 5 5 6 7 6 7 7 7 6 7 7 7 7 7 7
12 11 10 8 7 7 6 6 5 5 4 4 3 3 2 2 2 2 2 2 2 3 3 3 3 4 5 5 6 6 5 5 6 7 8 7 7 7 8 8 8 8 8
12 11 10 9 8 7 7 6 5 5 5 4 3 3 2 2 2 2 2 2 2 2 3 3 3 4 4 5 5 5 5 5 6 6 7 8 8 8 8 8 9 9 10
13 12 10 10 8 7 7 7 6 5 5 4 4 3 2 2 2 1 1 1 2 2 3 3 3 4 4 5 5 5 5 5 6 5 6 6 7 7 7 7 8 8 9
14 12 11 11 10 9 8 7 7 6 5 5 4 3 3 2 2 2 1 1 1 2 2 3 4 4 4 5 5 5 5 6 6 5 5 5 5 6 6 7 7 8 8
15 14 12 11 11 10 9 8 8 7 6 5 5 4 3 3 2 2 2 2 2 2 2 3 4 4 5 5 6 6 6 6 6 6 6 6 6 7 7 7 8 8 9
16 14 13 12 11 11 10 9 9 8 7 7 6 5 4 3 3 3 2 1 2 2 2 3 3 4 5 6 6 6 6 6 7 7 7 7 7 7 8 8 8 9 10
17 15 14 13 12 11 11 10 9 9 8 7 7 6 5 4 3 3 2 2 2 2 3 3 3 4 4 5 5 6 7 7 7 8 8 8 8 8 9 9 9 10 11
18 16 15 15 14 12 12 11 11 10 10 9 8 7 6 5 4 3 3 3 3 3 3 4 4 5 5 6 6 7 7 8 8 9 9 9 9 10 10 10 10 11 11
18 18 17 16 15 14 13 13 12 11 11 10 9 8 7 6 5 5 4 4 4 4 5 5 5 5 6 7 8 8 8 9 10 10 10 11 11 11 11 11 12 12 12
19 19 18 17 16 15 14 13 13 12 11 10 10 9 8 7 6 5 5 5 6 6 6 6 7 7 8 8 9 9 10 11 11 12 12 12 12 13 13 13 13 13 13
19 19 19 18 17 16 15 14 13 13 12 11 11 10 8 8 7 6 7 7 8 8 9 9 9 9 9 10 11 11 12 12 12 13 13 14 14 14 15 15 15 15 15
20 20 19 18 18 17 16 15 14 13 12 12 12 11 10 9 8 8 8 9 10 10 11 11 12 11 12 12 13 14 14 15 15 15 16 16 17 17 17 17 17 17 17
19 19 19 18 18 17 16 15 15 14 13 13 13 12 11 11 10 10 10 11 12 12 13 13 13 14 14 15 15 16 17 18 18 18 19 19 20 20 20 20 20 20 20
19 19 19 18 17 17 16 16 16 15 14 14 14 14 13 12 12 13 13 14 14 15 15 16 16 17 18 18 19 20 20 21 21 22 22 22 23 23 23 23 23 23 23
18 18 19 19 18 17 16 17 17 16 16 15 15 15 15 15 15 16 16 17 17 18 18 18 19 20 21 21 22 23 24 24 24 25 25 25 25 25 25 25 26 26 26
18 18 18 18 18 17 17 17 17 17 17 17 17 17 18 18 19 19 19 19 20 21 21 22 22 23 24 25 26 26 26 27 27 27 27 27 28 28 28 29 29 29 29
18 18 17 17 17 17 17 17 18 19 18 19 19 20 21 22 22 22 22 22 23 24 25 25 26 26 26 28 28 29 29 30 30 29 30 30 30 31 31 31 31 31 31
18 18 17 17 16 17 18 18 19 20 20 21 22 23 24 24 24 24 25 26 26 27 28 29 29 29 29 30 31 32 32 32 32 32 32 32 33 33 33 33 33 33 33
16 17 17 17 18 18 19 20 21 21 22 23 23 24 25 26 26 27 27 28 30 30 31 31 31 31 31 33 33 33 34 34 34 35 35 35 35 35 35 36 36 36 36
17 17 17 18 19 19 20 21 21 21 22 24 25 26 27 28 29 29 30 31 32 33 33 34 33 34 35 36 36 36 36 37 36 37 38 38 39 38 38 38 38 38 38
17 17 17 18 18 19 20 21 22 23 24 25 26 28 29 30 31 32 33 34 35 36 37 37 37 37 38 38 39 39 39 40 40 40 41 41 41 41 42 42 41 41 41
18 18 18 19 20 21 22 23 24 25 26 27 28 29 31 32 33 34 35 36 37 38 38 39 40 41 42 42 42 42 43 43 43 42 44 44 44 44 44 44 44 44 44
20 21 22 22 23 23 24 25 26 27 28 30 31 32 33 34 35 36 37 38 39 40 41 43 43 44 44 44 45 45 46 46 46 45 46 47 46 46 46 46 47 47 47
22 23 24 25 25 26 27 28 29 30 30 32 33 34 36 36 38 39 40 41 41 42 44 45 46 46 46 47 48 48 49 49 49 48 48 50 49 50 49 48 49 49 49

GEFSMA_500_meanwind_150.txt.gz
Wind_Speed
9 8 7 7 6 5 4 4 3 3 3 2 2 2 1 1 1 1 1 1 1 1 1 1 1 1 1 1 2 2 3 3 4 4 4 4 4 4 4 4 5 5 5
9 8 8 7 6 5 5 5 4 4 3 3 2 2 2 1 1 1 1 1 1 1 1 1 1 1 1 2 2 2 3 3 3 4 4 4 4 5 5 5 6 6 6
10 9 8 8 7 6 5 5 5 5 4 4 3 2 2 2 1 2 1 1 1 1 1 1 1 1 0 1 1 2 2 2 3 3 4 4 5 5 5 6 6 7 8
11 10 9 9 8 7 6 6 5 5 5 5 4 3 3 3 2 2 2 1 1 1 1 1 1 0 0 0 1 1 1 1 2 2 3 4 4 5 5 5 6 7 8
11 11 10 9 9 8 7 7 6 6 6 6 6 5 4 4 3 3 2 2 2 2 2 1 1 1 1 1 1 2 1 1 1 2 3 3 4 4 5 5 6 6 7
13 12 11 10 10 9 8 8 7 7 6 7 7 6 5 4 4 3 3 3 3 3 2 2 1 1 1 1 1 1 2 2 1 1 2 2 2 3 4 4 5 6 7
15 14 13 11 10 10 9 9 8 7 7 7 7 7 6 5 4 4 4 4 4 3 3 2 2 1 0 0 1 1 1 1 1 1 1 2 2 3 3 4 5 5 6
17 16 14 13 12 11 11 10 9 9 8 8 8 8 8 6 6 6 6 5 5 4 4 3 3 2 1 1 1 0 0 1 1 1 2 2 3 3 4 4 5 5 6
18 17 16 15 14 12 12 11 11 10 10 9 9 9 9 8 7 6 6 6 6 6 5 5 4 3 3 2 2 1 1 1 2 2 3 3 4 4 4 5 5 6 6
19 18 17 16 15 14 13 13 12 12 11 11 10 10 10 9 8 7 7 7 7 7 6 6 5 4 4 3 3 3 3 3 3 3 4 4 5 5 6 6 7 7 8
19 19 18 18 17 16 15 14 13 13 13 12 11 11 11 10 9 9 8 7 7 7 7 7 7 6 6 5 5 5 5 5 5 5 6 6 6 7 8 8 8 9 9
20 20 19 19 18 17 16 15 14 14 14 13 12 12 12 11 11 10 9 9 8 8 8 8 8 8 8 7 7 7 7 7 7 7 8 8 8 9 9 10 10 11 11
21 21 20 20 19 18 17 16 15 15 15 14 14 13 13 12 12 11 10 9 8 8 8 8 9 9 9 10 10 10 10 10 10 10 10 10 11 11 12 13 13 13 14
21 22 22 22 20 19 18 17 17 16 16 15 15 15 14 14 13 12 11 10 10 9 9 9 10 10 10 11 12 12 12 12 13 13 13 14 14 14 15 15 16 16 17
21 22 22 22 21 20 19 18 18 17 16 16 16 16 16 15 14 14 13 12 11 11 10 11 11 12 12 13 14 15 15 15 16 16 16 17 17 18 18 18 19 19 19
21 22 23 22 21 20 19 19 18 18 18 17 17 17 17 16 16 16 16 15 14 14 14 14 14 14 15 16 17 17 18 18 19 19 19 20 20 21 21 21 21 22 22
21 21 22 22 21 20 20 20 20 19 19 19 18 18 19 18 18 18 18 17 16 17 17 17 18 18 18 19 20 20 20 21 22 22 23 23 23 23 24 24 24 25 25
21 21 21 21 21 20 20 20 20 20 19 19 19 19 20 20 19 20 20 19 19 19 20 20 21 21 22 22 23 23 24 24 25 25 26 26 26 26 27 27 27 28 28
21 21 22 21 21 20 20 20 20 20 20 20 20 20 20 21 21 22 22 22 22 22 22 22 23 24 25 25 26 26 26 27 27 28 28 29 29 29 29 30 30 31 31
21 21 22 22 21 21 20 20 20 20 20 21 21 22 22 23 23 24 24 24 25 25 25 26 26 27 27 27 28 28 29 30 30 31 31 31 32 33 33 34 34 34 35
20 21 22 22 21 20 19 20 21 21 21 22 23 24 25 25 26 26 26 27 27 28 28 28 29 30 30 31 31 31 32 32 33 34 34 35 36 36 37 37 38 38 38
18 20 20 21 20 20 20 20 20 21 23 24 25 25 26 26 27 28 28 29 30 30 30 31 31 32 33 34 34 34 35 34 35 37 38 38 40 40 41 41 41 41 41
18 18 19 20 20 21 22 22 22 23 24 24 25 25 26 27 28 28 30 31 32 32 33 33 34 35 35 37 37 38 38 39 38 40 41 41 42 43 43 43 43 44 45
17 18 19 20 21 22 23 23 24 24 25 25 25 26 27 28 28 29 31 32 33 34 35 36 36 37 38 39 40 41 41 42 42 43 45 44 44 45 46 46 47 47 48
18 19 20 21 22 23 24 24 25 26 26 26 27 28 28 29 30 32 32 33 34 35 36 37 37 38 40 41 42 44 44 45 45 45 48 49 48 48 48 48 49 50 50
18 20 22 23 24 25 26 26 27 28 28 29 30 31 31 32 32 33 34 35 36 37 38 38 39 40 42 43 45 46 47 48 48 47 49 51 51 52 50 48 49 51 52

GEFSMA_500_meanwind_156.txt.gz
Wind_Speed
6 6 4 3 2 2 1 1 1 1 2 2 1 1 1 1 1 1 0 1 1 2 2 2 2 3 2 2 3 3 3 3 4 4 4 3 3 3 3 3 3 3 3
7 7 6 5 4 3 3 3 2 2 2 2 2 2 1 1 1 1 0 1 1 1 1 2 2 2 2 2 3 3 3 4 4 4 4 4 4 4 4 4 4 4 5
9 8 7 6 5 4 5 4 3 3 2 2 2 2 2 1 1 1 0 0 1 1 1 1 1 2 2 2 3 3 3 3 3 4 4 5 5 4 5 5 5 5 6
10 9 9 7 6 5 5 5 4 4 3 3 3 2 2 2 1 1 1 1 1 1 1 1 1 1 2 2 2 2 2 2 3 3 4 4 5 5 6 5 5 6 6
12 11 10 9 7 6 6 6 5 5 4 4 3 3 3 2 2 2 2 2 2 2 2 2 2 2 1 1 2 2 2 2 2 2 3 4 5 5 5 5 6 6 7
13 13 11 10 9 8 8 8 7 6 6 5 5 4 4 3 3 3 3 3 3 3 2 2 2 2 1 1 1 2 2 2 2 3 3 3 4 5 5 5 6 6 6
14 14 13 12 11 10 9 9 8 8 8 7 7 6 6 5 4 4 4 4 4 4 3 3 3 3 2 2 2 3 3 3 3 3 3 3 4 4 4 5 5 6 6
15 15 15 14 13 12 11 10 10 9 9 8 8 8 8 7 6 6 5 5 5 5 5 4 4 4 4 3 3 3 3 3 3 4 4 4 5 5 5 5 6 7 7
16 16 16 16 15 14 13 12 11 11 10 9 9 9 9 8 7 7 7 7 7 7 7 6 5 5 5 5 5 5 4 4 4 5 5 5 6 6 6 7 7 8 8
17 17 18 17 17 16 15 14 13 12 12 11 11 10 10 9 9 9 9 9 8 8 8 8 7 7 7 6 6 6 6 6 6 6 6 7 7 8 8 8 9 9 10
18 19 20 19 18 18 17 16 16 15 14 13 13 12 11 11 11 10 10 10 10 9 9 9 9 8 8 8 8 8 8 8 8 8 9 9 9 10 10 10 11 11 12
18 20 21 21 20 20 19 18 17 16 15 15 14 14 13 13 12 11 11 11 11 10 10 10 10 10 10 10 10 10 10 11 11 11 12 12 12 12 12 13 13 13 14
20 20 22 22 21 21 20 20 19 18 17 17 16 15 15 14 13 13 12 12 12 12 12 12 12 12 12 12 12 12 13 13 13 14 14 14 15 15 15 16 16 16 17
21 21 22 22 22 22 22 21 20 20 18 18 17 17 16 16 15 14 14 13 14 14 14 13 13 13 13 13 14 14 15 15 15 16 17 17 18 18 18 18 19 19 20
22 23 23 23 22 22 22 21 20 20 20 19 18 17 17 17 16 16 15 15 15 15 15 15 15 15 15 15 15 16 17 18 18 19 19 20 20 20 21 21 22 23 23
23 23 24 24 23 22 22 22 21 21 21 20 19 19 19 19 18 17 17 17 17 17 17 18 17 17 18 18 18 19 20 21 22 22 23 23 23 24 24 25 25 25 26
22 22 22 23 23 24 23 23 22 22 22 21 21 20 20 20 20 19 19 18 18 19 19 20 20 21 21 21 22 23 24 24 24 25 25 26 26 27 28 28 28 28 29
22 21 21 21 22 23 24 23 23 22 22 22 23 23 22 21 21 21 20 19 20 20 21 22 23 24 25 25 25 25 26 26 27 27 28 29 29 30 31 31 31 32 32
22 22 22 22 22 23 23 23 23 23 23 23 23 23 22 22 22 22 21 21 22 23 24 24 25 26 27 27 28 28 29 30 30 31 31 32 32 33 34 34 35 35 36
21 22 22 23 22 22 23 23 23 23 23 23 23 22 23 23 24 24 24 24 25 25 26 27 28 29 30 31 31 31 32 33 34 34 35 35 36 36 36 37 38 38 39
20 22 22 22 22 23 24 24 23 23 23 23 23 23 23 24 25 26 27 27 27 28 29 30 31 31 32 33 33 34 34 35 35 36 37 38 38 39 39 40 41 41 42
19 21 22 22 23 24 25 24 24 24 24 25 24 25 25 26 27 28 29 30 30 31 32 33 34 34 35 36 36 36 37 37 37 39 39 39 40 41 42 43 43 44 44
19 21 22 23 22 24 25 24 25 25 26 26 26 26 26 27 29 30 31 31 31 32 34 35 36 37 38 39 39 39 39 40 40 41 41 41 43 43 44 45 46 46 47
17 19 20 21 22 22 23 25 26 26 27 28 28 28 28 29 31 32 32 32 33 34 35 36 37 37 39 40 40 41 42 42 42 43 44 44 44 46 47 48 49 49 50
16 18 19 20 21 22 22 24 25 26 27 28 29 29 30 31 32 33 33 34 35 35 37 37 38 39 39 40 41 42 43 44 44 45 47 48 48 50 50 50 51 52 53
16 18 19 20 21 22 23 25 26 26 28 29 30 31 31 32 33 34 34 35 36 37 39 40 41 41 42 42 43 44 45 46 47 47 49 50 51 51 51 51 52 54 56

GEFSMA_500_meanwind_162.txt.gz
Wind_Speed
8 7 6 5 5 5 4 3 4 4 3 4 3 3 2 2 2 2 2 2 2 2 2 3 2 2 2 2 2 3 3 3 3 3 3 2 2 2 1 1 2 2 2
9 8 8 7 6 6 4 4 4 4 3 3 3 3 3 2 2 2 2 2 2 2 2 2 2 2 2 2 3 2 3 3 3 3 3 3 3 2 2 2 3 3 3
10 9 9 8 8 7 6 5 4 4 4 3 3 3 3 3 2 2 2 2 2 2 2 1 1 2 2 2 3 3 3 3 3 3 3 3 3 3 3 4 4 4 4
11 11 10 10 9 8 7 6 5 5 4 4 3 3 3 3 3 2 2 2 2 2 2 1 1 1 2 2 3 3 3 3 3 3 3 3 3 3 4 4 4 5 5
11 12 12 11 10 9 8 7 6 5 5 4 4 4 4 3 3 3 3 2 2 2 2 2 2 1 2 2 2 2 2 2 2 3 3 3 3 4 4 5 5 4 5
13 12 13 12 11 10 10 8 7 6 6 6 5 5 4 4 4 3 4 3 3 3 3 2 2 3 2 2 2 2 3 3 3 3 3 3 3 4 4 4 5 5 5
14 14 14 13 13 12 11 10 9 8 7 7 7 6 6 5 5 5 4 4 4 4 4 4 3 4 4 3 3 3 3 4 4 3 3 3 3 4 4 5 5 5 5
15 15 15 15 14 13 12 11 10 10 9 8 8 8 7 7 7 6 6 6 6 5 5 5 5 5 5 4 4 4 4 4 4 4 4 4 4 4 5 5 5 5 6
16 16 17 16 15 15 13 12 11 11 11 10 10 9 9 9 8 8 8 7 7 7 7 7 7 7 7 7 6 6 5 5 5 5 5 5 5 5 6 6 7 7 8
17 17 18 18 17 16 15 14 13 12 12 12 11 11 11 10 10 9 9 9 9 9 9 9 9 9 9 9 9 8 7 7 6 6 6 6 7 7 8 8 9 9 10
18 18 18 19 18 18 17 16 15 14 13 13 13 12 12 12 11 11 10 10 10 10 10 10 10 11 11 11 11 10 10 9 8 8 9 9 9 9 9 10 10 11 11
19 19 19 20 20 19 19 18 18 16 15 14 14 14 13 13 13 12 12 11 12 12 12 12 12 12 12 12 12 11 11 11 11 11 11 11 11 12 12 12 13 13 13
20 20 19 20 20 20 20 20 19 18 17 16 16 16 16 15 15 14 14 14 13 13 13 13 13 13 13 12 13 13 13 13 13 13 14 14 14 15 15 15 16 16 16
21 20 21 21 21 21 20 20 21 20 19 18 18 17 17 17 17 16 16 16 16 15 15 15 15 15 14 14 15 15 15 15 16 16 17 17 18 18 18 19 19 19 19
22 21 21 22 23 22 22 21 21 21 20 19 19 19 19 19 18 18 18 17 17 17 17 17 17 17 16 17 17 17 17 17 18 18 19 20 21 21 21 22 22 22 23
22 22 22 21 22 22 22 22 21 21 21 21 20 20 20 20 19 19 19 19 19 19 20 19 19 19 19 19 19 19 20 21 21 21 22 22 23 24 24 25 25 26 26
22 22 21 21 21 21 22 22 22 22 22 22 22 22 21 21 21 22 22 22 22 21 21 21 21 21 21 22 21 22 23 23 24 25 25 25 26 26 27 28 28 29 30
20 21 21 21 21 22 22 22 22 22 22 23 23 22 23 23 23 23 23 24 23 22 22 23 23 23 23 24 25 25 26 26 27 28 29 29 29 30 30 31 32 32 33
20 21 20 21 22 22 22 22 23 23 23 23 24 24 23 23 24 24 23 24 24 24 24 25 26 26 26 27 27 28 29 30 30 31 31 31 32 32 33 34 35 35 36
19 20 20 20 21 22 22 23 24 24 24 24 24 25 25 24 25 24 24 25 25 25 26 27 28 28 29 30 30 31 31 32 32 33 34 35 35 36 36 37 38 38 39
17 19 20 21 21 21 23 23 24 24 24 24 26 26 26 25 25 26 26 27 27 27 28 29 30 30 31 32 33 33 34 35 35 36 37 38 38 39 39 40 40 41 42
17 18 19 19 20 20 21 23 23 24 24 25 26 27 27 26 27 27 27 27 28 29 29 30 31 32 33 34 34 35 35 36 37 38 39 40 41 41 41 42 42 43 44
16 17 18 19 19 20 20 22 23 24 25 25 26 27 28 29 28 29 30 29 29 29 31 32 33 34 35 36 37 37 37 38 39 40 41 41 43 43 43 43 44 45 46
15 16 17 18 19 19 19 21 21 23 24 26 27 27 29 30 30 30 30 30 31 32 33 34 34 35 36 37 38 39 39 40 41 42 43 44 45 45 46 46 46 47 47
14 15 16 18 19 20 20 21 22 23 25 26 28 29 29 28 29 30 31 32 33 34 35 35 35 36 37 38 39 40 40 41 42 44 45 46 46 47 47 47 47 48 49
13 14 16 17 18 20 21 22 23 24 25 27 27 28 28 29 30 31 33 34 34 35 35 36 38 39 39 40 40 41 42 42 43 44 45 45 46 47 47 48 49 50 51

GEFSMA_500_meanwind_168.txt.gz
Wind_Speed
6 5 5 3 3 3 3 3 3 2 2 2 1 1 1 0 1 0 0 1 1 1 1 1 1 1 1 2 2 2 2 2 2 2 2 2 2 2 1 1 2 1 2
7 7 6 5 4 4 4 4 4 3 2 2 2 1 1 1 0 0 0 1 1 1 1 0 0 1 1 1 2 2 2 2 2 3 2 2 2 1 1 1 2 2 2
8 8 7 6 5 5 5 4 4 3 2 2 2 1 1 1 1 0 1 1 1 1 1 0 0 1 1 1 2 2 2 3 2 2 2 2 2 1 1 2 2 2 2
8 9 8 8 7 7 6 5 4 4 3 3 3 2 1 1 1 1 1 1 1 0 1 1 1 1 2 2 2 2 2 2 2 2 2 2 2 1 2 2 2 2 2
10 9 9 9 8 8 7 6 6 5 4 4 4 3 3 2 1 1 1 1 1 1 1 1 1 2 2 2 2 1 1 2 3 3 2 2 2 2 2 2 2 3 3
12 10 10 10 10 9 9 8 8 7 6 5 5 4 3 3 2 2 2 2 2 2 2 2 2 2 3 3 2 2 2 3 3 3 3 2 2 2 2 3 3 3 3
13 12 12 12 11 11 11 10 9 8 7 6 6 5 4 4 4 4 3 3 3 3 3 3 3 3 3 3 3 3 3 4 4 3 3 3 2 2 2 3 3 3 3
15 14 13 13 12 12 12 12 11 10 9 8 7 7 7 6 6 5 4 4 4 4 4 4 4 5 5 5 5 5 5 5 4 4 4 3 3 3 3 4 3 3 4
15 15 15 14 13 13 13 13 13 12 11 10 10 9 9 8 7 7 6 6 5 5 5 5 6 6 7 7 7 7 7 6 6 5 5 5 5 5 5 5 5 5 5
14 15 16 16 15 14 14 14 14 13 13 12 11 11 10 10 10 8 8 7 6 6 7 7 7 8 8 8 8 8 8 7 7 7 7 7 7 7 7 7 7 7 7
15 15 17 17 17 16 16 16 15 15 14 13 13 12 12 12 11 11 10 9 9 8 8 8 8 8 9 9 9 9 8 8 8 8 9 9 9 9 9 9 10 10 10
15 15 16 17 18 18 17 17 17 16 15 15 15 15 14 13 13 12 12 12 11 10 10 10 10 10 10 10 10 10 10 10 10 11 11 11 11 11 12 12 12 12 13
16 16 16 17 18 19 19 18 18 18 17 16 16 16 16 15 15 14 14 14 13 13 12 12 12 13 12 12 12 12 12 12 13 13 14 14 14 14 14 15 15 15 16
16 17 17 17 18 19 20 20 20 19 19 18 18 18 18 18 17 16 16 16 15 15 14 14 14 14 14 14 14 15 15 15 15 16 16 16 16 17 17 17 18 18 18
16 17 17 18 18 19 20 21 21 21 21 21 20 20 19 20 19 18 19 18 18 17 17 17 16 16 17 17 16 16 17 17 17 18 19 19 19 19 20 20 20 21 21
17 17 18 19 19 19 21 21 21 22 22 22 21 20 20 20 20 20 20 20 20 20 20 19 19 19 19 19 18 18 19 19 19 20 21 22 22 23 23 23 24 24 24
15 17 18 19 19 19 20 21 21 22 22 22 21 21 21 21 22 22 22 22 21 22 22 22 22 22 21 21 21 22 22 23 23 23 24 24 25 26 27 27 27 27 27
17 17 17 18 18 19 20 20 20 21 21 22 22 22 22 22 22 23 23 23 24 24 24 24 23 23 23 23 24 25 25 25 26 26 26 27 28 28 29 30 30 31 31
16 17 17 18 19 20 20 21 21 21 21 22 22 23 24 24 24 24 24 24 25 25 25 25 26 26 26 27 27 27 28 28 29 30 30 30 31 32 32 32 33 34 35
17 17 17 18 19 19 20 21 22 21 22 22 23 24 24 24 25 25 26 26 27 27 27 28 28 28 29 29 29 30 31 32 32 33 32 32 33 34 34 34 35 35 36
17 18 18 18 18 19 19 20 20 21 21 22 23 24 25 25 26 27 27 28 28 28 29 29 30 30 31 31 31 32 33 33 34 34 34 34 35 35 35 36 37 38 38
17 17 18 18 19 19 20 20 20 21 22 22 23 24 25 26 27 27 28 29 30 31 31 32 32 32 33 34 33 33 34 35 35 36 37 37 37 37 38 38 38 39 40
16 16 16 17 18 19 19 20 20 22 22 22 23 24 25 25 26 28 29 30 32 32 32 33 33 34 35 36 36 36 37 37 38 38 39 39 39 39 39 40 40 40 41
15 15 16 17 17 17 18 20 21 21 21 22 23 25 25 26 27 28 29 30 32 32 33 33 34 35 36 36 37 38 38 38 39 39 38 38 39 40 40 41 41 42 42
15 15 15 16 16 16 17 19 20 20 21 22 24 24 26 27 28 29 29 30 32 33 34 35 34 35 34 35 36 38 38 38 38 39 39 39 39 40 40 41 42 43 43
15 15 15 15 15 16 17 18 19 20 21 23 24 25 26 27 29 30 30 31 32 32 33 33 34 33 33 34 35 36 37 38 38 39 39 40 40 41 41 42 44 45 45

GEFSMA_500_meanwind_174.txt.gz
Wind_Speed
2 2 2 2 2 1 1 1 2 2 2 2 1 1 1 0 0 0 0 0 1 0 0 1 1 1 1 1 1 1 1 1 1 1 1 0 0 1 1 1 1 0 1
4 3 3 2 2 2 2 2 2 2 2 2 1 1 1 0 0 0 0 0 0 0 0 0 1 1 1 1 0 0 1 1 1 1 1 1 1 2 2 2 2 2 2
4 4 4 3 3 3 2 2 3 3 3 2 2 1 1 1 0 0 0 0 0 0 0 1 1 1 1 1 1 1 1 1 1 2 2 2 2 2 3 3 3 3 3
6 5 5 5 5 4 3 3 3 3 3 3 2 2 1 1 1 1 1 1 0 0 0 1 1 2 1 1 1 1 1 1 2 2 2 2 2 3 3 3 3 3 3
7 7 6 6 5 5 4 4 4 4 4 3 3 3 2 2 2 2 2 2 1 1 1 1 1 2 2 2 2 2 2 2 2 2 2 2 3 3 3 3 4 4 4
8 8 7 7 7 7 6 6 6 5 5 5 4 4 3 3 3 3 3 3 3 3 2 2 2 2 3 3 3 4 4 4 3 3 3 3 3 3 3 4 4 4 5
10 10 9 9 8 8 8 8 7 6 6 6 5 5 4 4 4 4 4 4 4 4 4 3 3 4 4 4 5 5 5 5 5 5 4 4 4 4 4 4 5 5 6
10 11 11 11 10 10 10 10 9 9 8 8 7 7 6 6 6 5 5 6 6 5 5 5 5 5 5 6 6 6 6 6 6 6 6 6 5 5 5 5 6 6 6
10 10 11 12 12 11 11 12 12 11 11 10 10 9 9 8 8 7 7 7 7 7 7 7 7 7 7 7 7 7 7 7 7 7 7 7 7 7 7 7 8 8 8
11 11 10 12 12 13 13 13 13 13 13 12 11 11 11 10 10 9 8 8 8 9 9 9 9 9 9 9 9 9 9 9 9 9 9 9 9 9 9 9 9 9 10
11 11 11 11 13 13 13 14 15 15 14 13 13 13 12 12 12 11 10 10 10 10 11 11 10 10 11 11 11 11 10 10 11 11 11 11 11 11 11 11 11 11 12
11 12 12 13 13 14 13 14 15 15 16 15 15 15 14 14 14 14 13 13 13 13 13 13 12 12 13 13 12 12 12 12 12 12 13 14 14 14 14 14 14 14 14
11 11 13 13 14 14 14 15 15 16 17 17 17 17 16 16 16 15 16 16 15 15 15 15 15 15 14 14 14 14 14 14 14 15 15 15 16 16 16 17 17 17 17
12 12 13 13 14 14 14 15 16 17 18 18 18 18 18 17 17 17 17 17 18 17 17 17 16 16 16 16 16 16 16 17 17 17 17 17 18 18 19 19 19 20 20
13 14 14 14 14 15 16 16 17 18 18 18 19 19 19 19 19 19 19 19 20 19 19 19 19 18 18 19 19 19 19 20 20 20 20 20 21 21 22 22 22 22 23
13 14 15 15 15 16 16 16 17 18 18 19 20 21 20 20 20 21 20 21 21 21 21 21 21 21 21 21 21 21 22 22 23 22 23 23 24 24 25 25 26 26 26
14 15 15 16 16 16 16 17 18 19 19 19 20 22 22 22 22 22 22 22 22 23 22 23 23 23 23 24 24 24 25 25 25 25 25 25 26 27 27 28 28 29 30
15 16 16 16 16 17 17 17 18 19 19 20 20 21 22 23 23 23 23 23 23 24 24 24 25 25 25 26 26 26 26 27 27 28 29 29 29 29 30 31 31 32 33
14 15 15 16 17 17 18 18 18 19 20 20 21 22 23 23 23 24 24 25 25 26 26 26 26 27 27 28 28 29 29 30 30 31 31 32 32 32 32 33 34 35 36
13 13 14 15 16 17 17 17 18 19 20 20 21 21 22 23 23 24 25 26 26 26 27 27 28 29 30 30 31 31 32 33 33 33 34 34 35 35 35 36 37 38 38
13 13 14 15 16 16 16 17 17 18 19 20 21 22 22 23 24 25 25 25 26 26 27 28 29 30 31 31 32 33 34 34 35 35 36 37 37 37 37 38 39 40 40
13 14 15 16 16 16 16 17 18 19 20 21 21 22 23 23 24 24 25 25 26 27 28 29 30 31 31 32 33 33 34 34 35 36 37 38 38 39 40 40 40 40 40
14 14 15 16 16 17 17 17 17 18 19 19 21 22 23 24 24 25 25 26 26 27 28 29 30 31 32 33 34 35 36 36 36 37 37 37 38 38 39 40 40 40 40
14 14 15 16 17 17 18 18 18 18 18 19 20 21 23 24 25 25 26 26 27 28 29 30 31 32 32 33 34 35 35 35 35 35 36 37 38 39 39 40 40 40 41
13 14 15 16 16 16 16 17 17 18 19 19 20 21 22 23 24 25 27 28 29 30 31 32 32 33 34 34 34 34 35 35 34 35 36 37 38 39 40 41 42 43 43
14 14 15 15 15 15 16 17 18 19 19 20 21 21 22 23 24 25 26 28 29 29 30 31 32 33 33 33 33 34 35 35 35 36 37 39 40 41 41 42 44 45 45

GEFSMA_500_meanwind_180.txt.gz
Wind_Speed
1 1 1 1 1 1 1 1 1 1 1 1 1 1 2 2 2 2 1 1 1 1 1 2 2 1 1 0 0 1 2 2 2 2 2 2 1 1 1 1 2 1 1
2 2 2 1 2 2 2 2 1 1 1 1 0 1 1 2 2 2 1 2 2 2 2 2 2 1 1 1 1 2 2 2 3 3 2 2 2 2 2 2 2 3 3
3 3 3 3 2 2 2 2 2 1 1 1 1 0 1 1 1 1 1 2 2 2 2 2 2 1 1 1 2 2 2 3 3 3 3 3 3 3 3 3 4 4 4
4 5 5 4 4 3 3 3 2 2 2 2 2 1 1 1 1 2 2 2 2 2 2 2 2 2 2 2 3 3 3 4 4 4 4 4 4 4 4 4 5 5 5
6 6 7 6 5 5 5 4 3 3 3 3 3 3 3 3 3 3 3 3 3 3 3 3 3 3 4 4 4 4 4 4 4 4 4 4 4 5 5 5 5 5 6
8 8 8 7 7 7 7 6 5 4 4 4 4 4 4 4 4 4 4 4 4 4 4 4 4 4 4 5 5 5 5 5 5 5 5 5 5 5 6 6 6 6 7
9 9 9 9 9 8 8 8 7 6 6 6 6 6 6 6 5 5 5 6 5 5 5 6 5 5 6 6 6 6 7 7 7 7 7 7 7 7 7 8 8 8 8
10 10 10 9 9 10 10 9 9 9 8 8 8 8 8 8 7 7 7 7 7 7 7 7 7 7 8 8 8 8 8 8 8 8 8 8 9 9 9 9 9 9 10
10 10 10 10 10 10 10 11 11 11 10 10 10 10 10 10 10 9 9 9 9 9 9 9 9 9 10 10 10 9 9 9 10 10 10 10 10 10 11 11 11 11 11
10 10 10 11 11 11 11 11 12 12 13 13 13 12 12 12 12 12 11 11 11 11 11 11 11 11 11 11 11 11 11 11 12 12 12 12 12 12 12 13 13 13 13
10 10 10 11 11 12 12 12 13 13 14 14 14 14 14 14 14 14 14 13 13 13 13 13 13 13 13 13 13 13 13 13 14 15 15 15 15 15 15 15 15 16 16
11 11 11 12 12 13 13 13 13 14 14 15 16 16 16 16 16 16 16 16 16 16 15 15 15 16 16 16 16 16 16 16 17 17 17 17 17 17 17 17 18 18 18
11 12 12 13 13 14 15 15 14 15 16 16 17 18 18 18 18 18 18 18 17 17 17 17 17 18 18 18 18 18 18 18 19 19 19 20 19 19 20 20 21 21 21
13 13 14 14 14 14 14 15 15 15 16 17 18 19 19 19 20 20 20 20 19 19 19 19 19 19 20 20 20 20 20 20 21 21 21 21 22 23 23 23 23 24 24
13 13 14 15 16 16 16 16 16 16 16 17 18 18 19 20 21 21 21 21 22 21 21 21 21 22 22 22 23 23 23 23 24 24 24 24 24 25 25 25 26 26 26
13 14 14 15 15 16 17 17 18 18 18 19 19 20 20 20 21 22 23 23 23 23 22 24 24 25 26 25 25 25 25 26 26 26 26 27 27 28 28 28 29 29 28
14 14 15 15 16 16 17 18 19 19 20 20 20 20 21 22 22 22 23 23 24 24 24 24 26 26 27 27 27 27 27 28 28 29 29 30 30 30 31 31 32 31 32
14 15 15 16 16 17 18 19 19 19 19 19 20 20 21 21 22 22 23 24 25 26 26 26 26 27 27 28 28 29 28 29 30 31 32 33 33 33 34 34 34 35 35
14 14 15 16 17 18 18 19 19 19 19 20 20 19 21 21 22 23 24 24 26 26 26 26 27 28 28 29 29 29 30 31 32 33 34 35 35 36 36 37 38 38 38
15 15 15 16 17 18 18 18 19 19 19 19 19 19 20 22 23 24 24 25 26 26 26 26 27 28 29 30 30 31 31 32 34 35 35 36 37 38 39 39 40 40 40
15 15 16 16 17 17 17 17 18 18 18 19 19 20 20 21 22 23 25 26 26 27 27 28 29 30 30 31 31 32 33 34 35 36 37 37 38 39 40 40 40 40 40
15 16 16 16 17 17 17 17 18 18 19 19 20 21 21 23 24 25 26 27 27 28 28 29 30 30 31 31 32 34 34 35 36 37 38 39 39 40 41 41 40 40 41
15 16 16 17 17 18 19 19 19 19 20 21 21 22 23 24 25 26 26 26 27 28 29 31 31 32 32 32 34 35 36 36 36 37 38 39 39 40 40 40 40 41 42
16 16 17 18 19 19 20 20 20 21 21 21 22 22 22 23 24 25 26 27 28 29 29 30 31 32 33 33 34 35 36 37 37 38 38 39 40 40 41 42 42 43 43
17 17 18 19 19 20 20 21 21 21 21 21 22 23 24 24 24 25 26 27 28 29 30 30 31 32 32 33 34 35 36 37 38 39 40 41 41 43 43 44 44 45 45
18 18 19 19 19 19 19 19 20 21 21 22 23 24 24 24 25 26 26 27 28 29 30 31 31 32 33 35 35 36 38 39 40 41 42 42 43 44 45 46 47 48 48